カタログに戻る

SL-8 DEB

運用中LEO
NORAD 15784·DEBRIS·🇷🇺 Russia

打ち上げ Jun 28, 1979 から Plesetsk Cosmodrome

Loading…

次のパス (今後24時間)

TLE

最新Source: Space-Track

元期: Sep 14, 2026, 11:00 UTC

1 15784U 79060D   26257.45873229  .00003282  00000-0  35620-3 0  9993
2 15784  73.9936 145.7018 0004897 261.4452 154.6303 14.88592915205733

AllMySatでSL-8 DEBをリアルタイム追跡

Download on the App Store